{"data":{"norad_id":63409,"epoch":"2026-09-20T05:47:39.043104Z","epoch_age_seconds":181085,"freshness":"STALE","line1":"1 63409U 25065L   26263.24142411  .00009368  00000+0  34941-3 0  9997","line2":"2 63409  43.0039  88.3870 0002227 267.8248  92.2348 15.27591347 82593","mean_motion":15.27591347,"eccentricity":0.0002227,"inclination_deg":43.0039,"raan_deg":88.387,"arg_perigee_deg":267.8248,"mean_anomaly_deg":92.2348,"bstar":0.00034941,"rev_number":8259,"period_min":94.266048497066,"perigee_km":481.48714067295,"apogee_km":484.54309782687,"semimajor_km":6861.1521192499,"source":"CELESTRAK","updated_at":"2026-09-21T09:00:34.979582Z"}}